Location: Bouchavesnes-Bergen
(49.9859°N, 2.9203°E)
Time: 22:19:07
(UTC+00:00)

Cosmos 883 Rocket - Pass Details

Date: 09 March 2021
Orbit: 951 x 994 km, 83.0° (Epoch: 13 April)

Event Time Altitude Azimuth Distance (km) Brightness Sun altitude
Exits shadow 04:11:10 20° 200° (SSW) 2,076 5.9 -20.5°
Maximum altitude 04:15:37 71° 282° (WNW) 1,010 4.4 -19.8°
Drops below altitude 10° 04:21:45 10° 6° (N) 2,690 7.1 -18.8°
Sets 04:24:16 0° 9° (N) 3,639 7.8 -18.4°
